Weather History for New Bern, NC

Change the Weather History Date:

Tuesday, February 26, 2013

  Actual Average Record
Temperature  
Mean Temperature 55 °F 49 °F  
Max Temperature 70 °F 60 °F 80 °F (1977)
Min Temperature 39 °F 38 °F 18 °F (1967)
Degree Days  
Heating Degree Days 10 16  
Month to date heating degree days 456 475  
Since 1 July heating degree days 1900 2115  
Cooling Degree Days 0 0  
Month to date cooling degree days 0 0  
Year to date cooling degree days 7 1  
Growing Degree Days 4 (Base 50)    
Moisture  
Dew Point 55 °F    
Average Humidity 82    
Maximum Humidity 93    
Minimum Humidity 70    
Precipitation  
Precipitation 0.87 in 0.14 in 2.26 in (1958)
Month to date precipitation 4.31 3.39  
Year to date precipitation 6.14 7.41  
Snow  
Snow 0.00 in - - ()
Month to date snowfall T  
Since 1 July snowfall T  
Snow Depth 0.00 in    
Sea Level Pressure  
Sea Level Pressure 29.81 in    
Wind  
Wind Speed 11 mph (SE)    
Max Wind Speed 25 mph    
Max Gust Speed 36 mph    
Visibility 7 miles    
Events Rain    
T = Trace of Precipitation, MM = Missing Value Source: NWS Daily Summary

Daily Weather History Graph

Daily Weather History Graph

Search for Another Location

Airport:

Trip Planner

Search our weather history database for the weather conditions in past years. The results will help you decide how hot, cold, wet, or windy it might be!

Date:

Astronomy

Feb. 26, 2013 Rise Set
Actual Time 6:41 AM EST 6:01 PM EST
Civil Twilight 6:15 AM EST 6:26 PM EST
Nautical Twilight 5:46 AM EST 6:56 PM EST
Astronomical Twilight 5:16 AM EST 7:25 PM EST
Moon 7:10 PM EST (2/26) 6:46 AM EST (2/26)
Length of Visible Light 12h 11m
Length of Day
11h 20m
Full, 99% of the Moon is Illuminated
Feb 26
Full
Mar 4
Last Quarter
Mar 11
New
Mar 19
First Quarter
Mar 27
Full

Hourly Weather History & Observations

Time (EST) Temp. Windchill Dew Point Humidity Pressure Visibility Wind Dir Wind Speed Gust Speed Precip Events Conditions
12:54 AM 39.0 °F 33.4 °F 30.9 °F 73% 30.12 in 10.0 mi NE 8.1 mph - N/A   Clear
1:54 AM 39.9 °F 35.1 °F 33.1 °F 77% 30.12 in 10.0 mi NE 6.9 mph - N/A   Overcast
2:54 AM 42.1 °F 38.4 °F 34.0 °F 73% 30.11 in 10.0 mi ENE 5.8 mph - N/A   Overcast
3:54 AM 43.0 °F 38.2 °F 35.1 °F 74% 30.07 in 10.0 mi ENE 8.1 mph - N/A   Overcast
4:54 AM 44.1 °F 40.1 °F 36.0 °F 73% 30.06 in 10.0 mi ENE 6.9 mph - N/A   Scattered Clouds
5:54 AM 45.0 °F 40.6 °F 37.0 °F 74% 30.05 in 10.0 mi ENE 8.1 mph - N/A   Overcast
6:54 AM 46.0 °F 43.9 °F 39.0 °F 76% 30.02 in 10.0 mi East 4.6 mph - N/A   Overcast
7:54 AM 46.9 °F - 42.1 °F 83% 30.04 in 7.0 mi ENE 5.8 mph - 0.01 in Rain Light Rain
8:54 AM 48.9 °F - 45.0 °F 86% 30.03 in 5.0 mi East 5.8 mph - 0.09 in Rain Rain
9:54 AM 52.0 °F - 48.9 °F 89% 30.00 in 5.0 mi East 9.2 mph - 0.06 in Rain Light Rain
10:33 AM 53.6 °F - 51.8 °F 94% 29.94 in 6.0 mi East 11.5 mph - 0.03 in Rain Light Rain
10:47 AM 55.4 °F - 53.6 °F 94% 29.97 in 5.0 mi ESE 10.4 mph - 0.03 in Rain Light Rain
10:54 AM 55.9 °F - 53.1 °F 90% 29.96 in 5.0 mi East 12.7 mph 20.7 mph 0.04 in Rain Light Rain
11:01 AM 57.2 °F - 53.6 °F 88% 29.95 in 6.0 mi East 10.4 mph 20.7 mph 0.01 in Rain Light Rain
11:16 AM 57.2 °F - 53.6 °F 88% 29.92 in 5.0 mi East 13.8 mph 23.0 mph 0.02 in Rain Rain
11:54 AM 57.9 °F - 54.0 °F 87% 29.91 in 4.0 mi East 11.5 mph 18.4 mph 0.05 in Rain Rain
12:31 PM 57.2 °F - 55.4 °F 94% 29.87 in 2.0 mi East 12.7 mph 20.7 mph 0.06 in Rain Heavy Rain
12:54 PM 59.0 °F - 55.9 °F 90% 29.84 in 2.5 mi East 12.7 mph 19.6 mph 0.12 in Rain Rain
1:01 PM 59.0 °F - 55.4 °F 88% 29.83 in 3.0 mi East 10.4 mph 19.6 mph 0.01 in Rain Rain
1:54 PM 61.0 °F - 57.9 °F 90% 29.78 in 2.0 mi ESE 11.5 mph 26.5 mph 0.17 in Rain Heavy Rain
2:01 PM 60.8 °F - 57.2 °F 88% 29.77 in 1.5 mi ESE 11.5 mph 19.6 mph 0.05 in Rain Heavy Rain
2:16 PM 62.6 °F - 59.0 °F 88% 29.77 in 2.5 mi ESE 11.5 mph 20.7 mph 0.12 in Rain Heavy Rain
2:31 PM 62.6 °F - 59.0 °F 88% 29.76 in 1.8 mi SE 13.8 mph 18.4 mph 0.22 in Rain Heavy Rain
2:39 PM 64.4 °F - 60.8 °F 88% 29.72 in 3.0 mi SE 17.3 mph 26.5 mph 0.24 in Rain Rain
2:54 PM 64.9 °F - 62.1 °F 90% 29.73 in 10.0 mi SSE 13.8 mph 28.8 mph 0.25 in Rain Light Rain
3:46 PM 66.2 °F - 62.6 °F 88% 29.70 in 2.0 mi SSE 17.3 mph 31.1 mph 0.05 in Rain Rain
3:54 PM 66.0 °F - 63.0 °F 90% 29.69 in 7.0 mi SSE 19.6 mph 29.9 mph 0.05 in Rain Light Rain
4:10 PM 66.2 °F - 62.6 °F 88% 29.68 in 5.0 mi SSE 17.3 mph 31.1 mph 0.02 in Rain Rain
4:28 PM 66.2 °F - 62.6 °F 88% 29.66 in 10.0 mi SSE 18.4 mph 25.3 mph 0.02 in   Overcast
4:54 PM 68.0 °F - 64.0 °F 87% 29.66 in 10.0 mi South 18.4 mph 27.6 mph 0.02 in   Overcast
5:12 PM 68.0 °F - 64.4 °F 88% 29.64 in 10.0 mi SSE 11.5 mph 23.0 mph N/A   Overcast
5:52 PM 68.0 °F - 64.4 °F 88% 29.63 in 6.0 mi SSE 15.0 mph 23.0 mph 0.01 in Rain Light Rain
5:54 PM 68.0 °F - 64.9 °F 90% 29.63 in 6.0 mi South 13.8 mph 23.0 mph 0.01 in Rain Light Rain
6:05 PM 68.0 °F - 64.4 °F 88% 29.63 in 7.0 mi South 12.7 mph 23.0 mph 0.00 in Rain Light Rain
6:32 PM 69.8 °F - 64.4 °F 83% 29.63 in 9.0 mi South 12.7 mph 23.0 mph 0.00 in Rain Light Rain
6:54 PM 69.1 °F - 64.9 °F 87% 29.63 in 9.0 mi South 11.5 mph - 0.00 in   Overcast
7:54 PM 70.0 °F - 64.9 °F 84% 29.62 in 9.0 mi SSW 12.7 mph 21.9 mph N/A   Overcast
8:15 PM 69.8 °F - 66.2 °F 88% 29.62 in 8.0 mi South 13.8 mph 20.7 mph N/A   Overcast
8:52 PM 69.8 °F - 64.4 °F 83% 29.61 in 9.0 mi SSW 15.0 mph 21.9 mph N/A   Mostly Cloudy
8:54 PM 70.0 °F - 64.9 °F 84% 29.62 in 9.0 mi SSW 13.8 mph 21.9 mph N/A   Mostly Cloudy
9:02 PM 69.8 °F - 64.4 °F 83% 29.62 in 10.0 mi SSW 11.5 mph 21.9 mph N/A   Scattered Clouds
9:54 PM 66.9 °F - 62.1 °F 84% 29.62 in 10.0 mi SW 11.5 mph - N/A   Clear
10:54 PM 64.9 °F - 60.1 °F 84% 29.63 in 10.0 mi SW 8.1 mph - N/A   Clear
11:54 PM 64.0 °F - 59.0 °F 84% 29.62 in 10.0 mi West 10.4 mph - N/A   Partly Cloudy